Montreal Mirabel, Quebec

8:07 AM EST on December 16, 2017 (GMT -0500)
Montreal Mirabel

Weather History for CYMX - October, 2012

Change the Weather History Date:

Sunday, October 7, 2012

  Actual Average Record
Temperature  
Mean Temperature 42 °F -  
Max Temperature 48 °F 57 °F 75 °F (2016)
Min Temperature 37 °F 38 °F 30 °F (1999)
Degree Days  
Heating Degree Days 22    
Moisture  
Dew Point 35 °F    
Average Humidity 75    
Maximum Humidity 100    
Minimum Humidity 50    
Precipitation  
Precipitation 0.00 in - - ()
Sea Level Pressure  
Sea Level Pressure 30.03 in    
Wind  
Wind Speed 4 mph ()    
Max Wind Speed 12 mph    
Max Gust Speed 21 mph    
Averages and records for this station are not official NWS values.
T = Trace of Precipitation, MM = Missing Value Source: Averaged Metar Reports

Daily Weather History Graph

Daily Weather History Graph

Search for Another Location

Airport or City:

Trip Planner

Search our weather history database for the weather conditions in past years. The results will help you decide how hot, cold, wet, or windy it might be!

Date:

Astronomy

Oct. 07, 2012 Rise Set
Actual Time 7:02 AM EDT 6:24 PM EDT
Civil Twilight 6:32 AM EDT 6:53 PM EDT
Nautical Twilight 5:58 AM EDT 7:28 PM EDT
Astronomical Twilight 5:23 AM EDT 8:02 PM EDT
Moon 11:21 PM EDT (10/7) 1:50 PM EDT (10/7)
Length of Visible Light 12h 20m
Length of Day
11h 21m
Waning Gibbous, 56% of the Moon is Illuminated
Oct 7
Waning Gibbous
Oct 8
Last Quarter
Oct 15
New
Oct 21
First Quarter
Oct 29
Full

Hourly Weather History & Observations

Time (EDT) Temp. Windchill Dew Point Humidity Pressure Visibility Wind Dir Wind Speed Gust Speed Precip Events Conditions
12:00 AM 44.6 °F 40.7 °F 41.0 °F 87% 29.89 in 25.0 mi SW 6.9 mph - N/A   Partly Cloudy
1:00 AM 44.6 °F 41.4 °F 41.0 °F 87% 29.91 in 25.0 mi West 5.8 mph - N/A   Scattered Clouds
2:00 AM 42.8 °F 39.3 °F 39.2 °F 87% 29.93 in 25.0 mi WSW 5.8 mph - N/A   Partly Cloudy
3:00 AM 41.0 °F - 39.2 °F 93% 29.95 in 25.0 mi West 2.3 mph - N/A   Clear
4:00 AM 39.2 °F 37.0 °F 37.4 °F 93% 29.96 in 25.0 mi SW 3.5 mph - N/A   Clear
5:00 AM 39.2 °F 37.0 °F 37.4 °F 93% 29.99 in 25.0 mi SW 3.5 mph - N/A   Clear
6:00 AM 37.4 °F - 37.4 °F 100% 30.02 in 25.0 mi WSW 2.3 mph - N/A   Mostly Cloudy
7:00 AM 37.4 °F 33.8 °F 35.6 °F 93% 30.05 in 45.0 mi West 4.6 mph - N/A   Mostly Cloudy
8:00 AM 37.4 °F 34.9 °F 35.6 °F 93% 30.05 in 45.0 mi SW 3.5 mph - N/A   Mostly Cloudy
9:00 AM 41.0 °F 38.0 °F 35.6 °F 81% 30.06 in 45.0 mi WNW 4.6 mph - N/A   Scattered Clouds
10:00 AM 42.8 °F - 37.4 °F 81% 30.05 in 45.0 mi Calm Calm - N/A   Mostly Cloudy
11:00 AM 44.6 °F 40.2 °F 33.8 °F 66% 30.06 in 45.0 mi WSW 8.1 mph - N/A   Mostly Cloudy
12:00 PM 48.2 °F - 35.6 °F 62% 30.06 in 45.0 mi SW 9.2 mph - N/A   Mostly Cloudy
1:00 PM 48.2 °F - 33.8 °F 58% 30.06 in 45.0 mi WSW 9.2 mph 18.4 mph N/A   Mostly Cloudy
2:00 PM 48.2 °F - 33.8 °F 58% 30.06 in 45.0 mi WSW 9.2 mph 20.7 mph N/A   Mostly Cloudy
3:00 PM 48.2 °F - 30.2 °F 50% 30.04 in 45.0 mi WSW 11.5 mph 20.7 mph N/A   Mostly Cloudy
4:00 PM 48.2 °F - 32.0 °F 54% 30.04 in 45.0 mi West 5.8 mph - N/A   Mostly Cloudy
5:00 PM 48.2 °F - 30.2 °F 50% 30.04 in 45.0 mi SW 4.6 mph - N/A   Mostly Cloudy
6:00 PM 46.4 °F 45.2 °F 30.2 °F 53% 30.05 in 45.0 mi WSW 3.5 mph - N/A   Mostly Cloudy
7:00 PM 42.8 °F - 30.2 °F 61% 30.06 in 25.0 mi WSW 2.3 mph - N/A   Mostly Cloudy
8:00 PM 42.8 °F - 32.0 °F 66% 30.06 in 25.0 mi Calm Calm - N/A   Mostly Cloudy
9:00 PM 41.0 °F 39.0 °F 32.0 °F 70% 30.07 in 25.0 mi WNW 3.5 mph - N/A   Mostly Cloudy
10:00 PM 39.2 °F - 33.8 °F 81% 30.08 in 25.0 mi Calm Calm - N/A   Mostly Cloudy
11:00 PM 41.0 °F 39.0 °F 33.8 °F 76% 30.08 in 25.0 mi North 3.5 mph - N/A   Mostly Cloudy